Starlink 6338

operational
NORAD ID: 57364 Int'l Des: 2023-099 Owner: SPXS Country: US Constellation: starlink
LEOCIRCULAR

Über Starlink 6338

Beschreibung wird geladen...

Live-Position

3D-Globus wird geladen...

Nächste Überflüge

Höhenverlauf

Altitude vs Time

uPlot chart will show altitude changes over time

Zweizeiliger Elementsatz

1 57364U 23099AN 25260.96572640 .00000176 00000-0 28079-4 0 9996
2 57364 43.0056 94.5382 0001307 267.6973 92.3720 15.02532130120285
Epoch: 17. Sept. 2025 • Age: 14 hours

Aktueller Status

Höhe 562.9 km
Geschwindigkeit 7.58 km/s
Subsatellitenpunkt -19.37°S, 102.76°E
Startdatum 16. Juli 2023
Alter 2.1 years
Typ internet

Technische Details

Klassifizierung Payload
Masse 305.00 kg
Trockenmasse 290.00 kg
Gesamtmasse 305.00 kg
Länge 0.20 m
Durchmesser 2.80 m
Spannweite 9.00 m
Form Box + pan
Hersteller SPXS
Bus-Typ Starlink
Phasenstatus In Orbit
Besitzer/Staat SPXS/US

Große Konstellationen

Loading constellations...